星链-11639 (STARLINK-11639)

导读

STARLINK-11639是美国太空探索技术公司(SpaceX)于2025年3月13日发射的星链(Starlink)低轨互联网卫星,隶属于星链巨型卫星星座项目。星链星座旨在为全球提供低成本、高速低延迟的宽带互联网接入服务。作为近地轨道卫星,它承担着增强星座覆盖密度、提升全球网络服务能力的作用,但这类卫星的大规模部署也引发天文观测干扰、太空交通安全等领域的争议。

Basic Information
目录编号:
63189
目录名称:
STARLINK-11639
国际标识:
2025-048G
轨道中心:
EARTH
卫星名称:
星链-11639
卫星全名:
星链-11639 (STARLINK-11639)
卫星状态:
在轨 (已飞行541 天)
发射日期:
2025-03-13 UTC
国别 :
美国 (US)
星等 :
--
Orbit Information
数据来源 国际轨道数据
星历时间: 2026-09-05T12:42:49+0800
5小时前
查看轨道信息
半长轴: 6734.302km
偏心率: 0.0002015
轨道倾角: 43.000°
近地点辐角 145.371°
升交点赤经 317.822°
平近点角 214.729°
近地点: 354.808km
远地点: 357.522km
周期: 91.664分钟
每日圈数: 15.709556
Detailed Information
固有亮度:
5
最大亮度:
2.5
卫星平台:
Starlink V1.0
覆盖范围:
全球
运营商:
太空探索技术公司
运营商所在国:
美国
制造商(研发单位):
太空探索技术公司
制造商所在国:
美国
使用方式:
暂无
Satellite Introduction
Starlink 计划是 SpaceX 推出的全球卫星互联网项目,通过发射低轨道卫星,为全球尤其是偏远地区提供高速、低延迟的互联网服务。自 2019 年起,Starlink 已部署数千颗卫星,旨在缩小全球数字鸿沟,推动互联网普及。该项目还为军事、航空等行业提供通信支持,带来广泛经济效益。
2D Orbit Map
3D Orbit Map
Orbit Altitude Analysis Chart
Orbit Inclination Analysis Chart
Orbit Comprehensive Analysis Chart
View Comprehensive Chart
Conjunction Data List
Event ID Objects TCA Miss Dist (km) Collision Risk Probability Collision Risk Index (CRI) Action
CDM_260906-052406-200906-318921
2026-09-06T
05:24:24+0000
0.904 km
远距离
2.361212E-5 中风险 0.62
CDM_260906-205006-306206-318921
2026-09-06T
20:50:15+0000
2.478 km
极远距离
9.395775E-7 极低风险 0.34